NK0V Weather Reports


Display with metric or nautical units.
time (UTC)temp
F
wind
direction
speed
MPH
gust
MPH
rain 1hr
in
rain 24hr
in
rain mn
in
humidity
%
barometer
mb
20260831072600 70 106 0.0 2.0 0.00 0.00 0.00 82 1008.7
20260831072058 70 72 0.0 2.0 0.00 0.00 0.00 82 1008.6
20260831071611 70 0 0.0 2.0 0.00 0.00 0.00 81 1008.6
20260831071057 70 94 1.0 2.0 0.00 0.00 0.00 81 1008.5
20260831070556 71 0 0.0 2.0 0.00 0.00 0.00 81 1008.7
20260831070114 71 141 0.0 2.0 0.00 0.00 0.00 81 1008.5
20260831065557 71 141 0.0 3.0 0.00 0.00 0.00 81 1008.6
20260831065057 71 0 0.0 3.0 0.00 0.00 0.00 80 1008.8
20260831064602 71 0 0.0 2.0 0.00 0.00 0.00 80 1008.8
20260831064056 71 124 0.0 2.0 0.00 0.00 0.00 80 1008.8
20260831063556 72 0 0.0 2.0 0.00 0.00 0.00 80 1008.7
20260831063110 72 141 0.0 2.0 0.00 0.00 0.00 80 1008.5
20260831062559 72 158 0.0 2.0 0.00 0.00 0.00 79 1008.5
20260831062055 72 158 0.0 2.0 0.00 0.00 0.00 79 1008.5
20260831061604 72 126 0.0 2.0 0.00 0.00 0.00 79 1008.5
20260831061056 72 0 0.0 2.0 0.00 0.00 0.00 79 1008.5
20260831060555 73 0 0.0 2.0 0.00 0.00 0.00 79 1008.6
20260831060058 73 207 0.0 4.0 0.00 0.00 0.00 78 1008.6
20260831055558 73 0 0.0 5.0 0.00 0.00 0.00 78 1008.5
20260831055056 73 198 1.0 5.0 0.00 0.00 0.00 78 1008.5
20260831054601 73 198 1.0 5.0 0.00 0.00 0.00 78 1008.4
20260831054058 73 120 0.0 7.0 0.00 0.00 0.00 78 1008.3
20260831053557 74 136 1.0 7.0 0.00 0.00 0.00 78 1008.3
20260831053105 74 122 1.0 6.0 0.00 0.00 0.00 78 1008.3
20260831052556 74 192 2.0 6.0 0.00 0.00 0.00 78 1008.3
20260831052059 74 0 1.0 5.0 0.00 0.00 0.00 78 1008.3
20260831051558 74 199 1.0 4.0 0.00 0.00 0.00 78 1008.3
20260831051056 74 215 1.0 4.0 0.00 0.00 0.00 77 1008.3
20260831050557 74 166 1.0 4.0 0.00 0.00 0.00 77 1008.3
20260831050108 75 205 1.0 5.0 0.00 0.00 0.00 77 1008.3
20260831045557 75 173 1.0 5.0 0.00 0.00 0.00 77 1008.4
20260831045057 75 205 1.0 5.0 0.00 0.00 0.00 78 1008.5
20260831044602 75 205 1.0 5.0 0.00 0.00 0.00 78 1008.4
20260831044056 75 217 2.0 6.0 0.00 0.00 0.00 78 1008.6
20260831043556 75 205 1.0 6.0 0.00 0.00 0.00 78 1008.7
20260831043103 75 188 1.0 7.0 0.00 0.00 0.00 78 1008.7
20260831042600 75 215 2.0 7.0 0.00 0.00 0.00 78 1008.7
20260831042056 75 255 2.0 6.0 0.00 0.00 0.00 78 1008.7
20260831041605 75 227 2.0 6.0 0.00 0.00 0.00 78 1008.5
20260831041059 76 196 2.0 6.0 0.00 0.00 0.00 78 1008.6
20260831040559 76 218 1.0 6.0 0.00 0.00 0.00 78 1008.5
20260831040106 76 221 1.0 5.0 0.00 0.00 0.00 78 1008.5
20260831035558 76 167 0.0 5.0 0.00 0.00 0.00 78 1008.6
20260831035056 76 0 1.0 7.0 0.00 0.00 0.00 78 1008.7
20260831034613 76 164 1.0 7.0 0.00 0.00 0.00 77 1008.6
20260831034054 76 197 2.0 7.0 0.00 0.00 0.00 77 1008.5
20260831033558 76 201 2.0 5.0 0.00 0.00 0.00 77 1008.5
20260831033106 77 0 1.0 4.0 0.00 0.00 0.00 77 1008.4
20260831032556 77 140 1.0 5.0 0.00 0.00 0.00 77 1008.5
20260831032056 77 0 1.0 5.0 0.00 0.00 0.00 77 1008.4
20260831031601 77 204 1.0 6.0 0.00 0.00 0.00 76 1008.3
20260831031100 77 204 2.0 8.0 0.00 0.00 0.00 76 1008.3
20260831030600 78 198 3.0 8.0 0.00 0.00 0.00 75 1008.2
20260831030106 78 141 2.0 8.0 0.00 0.00 0.00 75 1008.1
20260831025558 78 189 2.0 7.0 0.00 0.00 0.00 74 1008.1
20260831025057 78 126 1.0 5.0 0.00 0.00 0.00 74 1008.1
20260831024603 79 0 1.0 6.0 0.00 0.00 0.00 74 1008.1
20260831024100 79 198 2.0 6.0 0.00 0.00 0.00 73 1008.0
20260831023557 79 210 1.0 5.0 0.00 0.00 0.00 73 1008.0
20260831023121 79 135 1.0 5.0 0.00 0.00 0.00 72 1007.9
20260831022557 80 180 1.0 5.0 0.00 0.00 0.00 72 1007.7
20260831022058 80 193 1.0 4.0 0.00 0.00 0.00 72 1007.6
20260831021607 80 0 1.0 5.0 0.00 0.00 0.00 71 1007.6
20260831021057 80 170 1.0 6.0 0.00 0.00 0.00 71 1007.7
20260831020556 81 0 1.0 6.0 0.00 0.00 0.00 71 1007.6
20260831020109 81 147 1.0 5.0 0.00 0.00 0.00 70 1007.5
20260831015557 81 163 1.0 5.0 0.00 0.00 0.00 70 1007.5
20260831015057 82 153 0.0 5.0 0.00 0.00 0.00 69 1007.5
20260831014626 82 132 1.0 5.0 0.00 0.00 0.00 69 1007.4
20260831014056 82 223 1.0 4.0 0.00 0.00 0.00 69 1007.2
20260831013557 82 0 0.0 5.0 0.00 0.00 0.00 68 1007.2
20260831013116 83 190 1.0 6.0 0.00 0.00 0.00 67 1007.3
20260831012557 83 137 1.0 6.0 0.00 0.00 0.00 67 1007.2
20260831012056 83 211 1.0 6.0 0.00 0.00 0.00 66 1007.2
20260831011604 84 180 2.0 6.0 0.00 0.00 0.00 66 1007.3
20260831011056 84 186 1.0 4.0 0.00 0.00 0.00 65 1007.3
20260831010601 84 118 1.0 4.0 0.00 0.00 0.00 65 1007.2
20260831010109 84 126 1.0 4.0 0.00 0.00 0.00 64 1007.3
20260831005555 85 165 1.0 4.0 0.00 0.00 0.00 64 1007.2
20260831005058 85 149 1.0 3.0 0.00 0.00 0.00 64 1007.1
20260831004604 85 135 1.0 3.0 0.00 0.00 0.00 65 1007.1
20260831004058 85 178 1.0 3.0 0.00 0.00 0.00 64 1007.2
20260831003556 86 0 0.0 3.0 0.00 0.00 0.00 63 1007.1
20260831003103 86 205 1.0 3.0 0.00 0.00 0.00 63 1007.2
20260831002556 86 0 0.0 3.0 0.00 0.00 0.00 63 1007.2
20260831002057 86 241 0.0 4.0 0.00 0.00 0.00 63 1007.3
20260831001613 87 0 1.0 4.0 0.00 0.00 0.00 62 1007.3
20260831001058 87 213 1.0 4.0 0.00 0.00 0.00 62 1007.2
20260831000556 87 0 1.0 5.0 0.00 0.00 0.00 61 1007.3
20260830235556 88 212 1.0 4.0 0.00 0.00 0.00 59 1007.2
20260830235100 88 223 1.0 4.0 0.00 0.00 0.00 58 1007.1
20260830234602 88 207 1.0 5.0 0.00 0.00 0.00 58 1007.0
20260830234056 89 197 1.0 7.0 0.00 0.00 0.00 58 1007.0
20260830233554 89 202 2.0 7.0 0.00 0.00 0.00 57 1006.9
20260830233125 89 146 2.0 7.0 0.00 0.00 0.00 57 1006.9
20260830232555 89 155 2.0 7.0 0.00 0.00 0.00 56 1006.8
20260830232057 90 221 1.0 7.0 0.00 0.00 0.00 56 1006.9
20260830231602 90 152 2.0 6.0 0.00 0.00 0.00 56 1006.8
20260830231056 90 159 1.0 5.0 0.00 0.00 0.00 57 1006.8
20260830230554 91 206 2.0 6.0 0.00 0.00 0.00 56 1006.7
20260830230110 91 130 2.0 6.0 0.00 0.00 0.00 56 1006.7
20260830225556 91 209 1.0 6.0 0.00 0.00 0.00 56 1006.8
20260830225056 91 193 2.0 5.0 0.00 0.00 0.00 56 1006.8
20260830224609 92 198 2.0 5.0 0.00 0.00 0.00 55 1006.7
20260830224055 92 169 1.0 5.0 0.00 0.00 0.00 55 1006.6
20260830223555 92 204 1.0 7.0 0.00 0.00 0.00 54 1006.6
20260830223104 92 182 1.0 9.0 0.00 0.00 0.00 53 1006.6
20260830222555 92 144 2.0 9.0 0.00 0.00 0.00 51 1006.6
20260830222054 92 213 3.0 9.0 0.00 0.00 0.00 50 1006.6
20260830221600 92 209 2.0 9.0 0.00 0.00 0.00 51 1006.6
20260830221054 93 152 3.0 9.0 0.00 0.00 0.00 50 1006.5
20260830220554 93 213 2.0 8.0 0.00 0.00 0.00 51 1006.6
20260830220106 93 206 3.0 9.0 0.00 0.00 0.00 50 1006.6
20260830215555 93 219 2.0 9.0 0.00 0.00 0.00 50 1006.5
20260830215057 93 227 3.0 7.0 0.00 0.00 0.00 49 1006.7
20260830214600 93 221 2.0 7.0 0.00 0.00 0.00 50 1006.7
20260830214054 93 202 3.0 7.0 0.00 0.00 0.00 50 1006.7
20260830213554 93 197 2.0 7.0 0.00 0.00 0.00 50 1006.7
20260830213102 93 226 2.0 8.0 0.00 0.00 0.00 51 1006.7
20260830212555 93 215 4.0 8.0 0.00 0.00 0.00 49 1006.6
20260830212055 93 204 3.0 7.0 0.00 0.00 0.00 51 1006.8
20260830211558 93 221 2.0 10.0 0.00 0.00 0.00 50 1006.7
20260830211057 93 151 5.0 10.0 0.00 0.00 0.00 49 1006.8
20260830210557 93 244 4.0 9.0 0.00 0.00 0.00 50 1006.7
20260830210106 93 230 3.0 9.0 0.00 0.00 0.00 51 1006.8
20260830205555 94 186 2.0 10.0 0.00 0.00 0.00 52 1006.9
20260830205101 94 229 3.0 10.0 0.00 0.00 0.00 51 1006.9
20260830204600 94 230 2.0 8.0 0.00 0.00 0.00 52 1006.9
20260830204056 94 234 2.0 7.0 0.00 0.00 0.00 53 1006.9
20260830203555 94 227 2.0 6.0 0.00 0.00 0.00 53 1006.8
20260830203100 94 130 1.0 6.0 0.00 0.00 0.00 54 1006.8
20260830202558 94 188 2.0 6.0 0.00 0.00 0.00 55 1006.9
20260830202056 94 171 2.0 8.0 0.00 0.00 0.00 52 1006.9
20260830201559 94 167 3.0 9.0 0.00 0.00 0.00 52 1007.0
20260830201057 94 155 3.0 10.0 0.00 0.00 0.00 53 1007.0
20260830200554 94 182 3.0 10.0 0.00 0.00 0.00 55 1007.0
20260830195556 94 186 2.0 5.0 0.00 0.00 0.00 53 1007.0
20260830195056 95 0 1.0 7.0 0.00 0.00 0.00 55 1007.1
20260830194607 95 140 2.0 10.0 0.00 0.00 0.00 53 1007.2
20260830194054 94 168 2.0 10.0 0.00 0.00 0.00 55 1007.3
20260830193556 95 120 2.0 10.0 0.00 0.00 0.00 54 1007.2
20260830193102 95 144 3.0 8.0 0.00 0.00 0.00 54 1007.2
20260830192557 94 124 2.0 7.0 0.00 0.00 0.00 55 1007.4
20260830192058 94 225 1.0 10.0 0.00 0.00 0.00 54 1007.5
20260830191608 93 147 2.0 10.0 0.00 0.00 0.00 59 1007.5
20260830191056 93 224 3.0 8.0 0.00 0.00 0.00 56 1007.5
20260830190559 93 206 2.0 8.0 0.00 0.00 0.00 57 1007.6
20260830185559 93 226 4.0 10.0 0.00 0.00 0.00 58 1007.6
20260830185057 93 233 2.0 9.0 0.00 0.00 0.00 59 1007.5
20260830184557 93 205 4.0 11.0 0.00 0.00 0.00 61 1007.5
20260830184056 93 182 3.0 11.0 0.00 0.00 0.00 60 1007.5
20260830183556 93 243 5.0 10.0 0.00 0.00 0.00 58 1007.5
20260830183106 93 236 3.0 9.0 0.00 0.00 0.00 59 1007.5
20260830182600 94 184 3.0 9.0 0.00 0.00 0.00 58 1007.4
20260830182058 94 148 2.0 6.0 0.00 0.00 0.00 60 1007.6
20260830181600 93 121 3.0 7.0 0.00 0.00 0.00 61 1007.6
20260830181059 93 0 1.0 7.0 0.00 0.00 0.00 60 1007.7
20260830180557 93 121 2.0 9.0 0.00 0.00 0.00 58 1007.8
20260830180108 93 136 3.0 9.0 0.00 0.00 0.00 60 1007.7
20260830175557 93 124 3.0 9.0 0.00 0.00 0.00 61 1007.8
20260830175057 93 57 2.0 8.0 0.00 0.00 0.00 61 1007.8
20260830174616 92 129 2.0 8.0 0.00 0.00 0.00 60 1007.8
20260830174059 92 121 3.0 8.0 0.00 0.00 0.00 60 1007.9
20260830173556 92 155 2.0 7.0 0.00 0.00 0.00 60 1007.9
20260830173111 92 123 2.0 9.0 0.00 0.00 0.00 61 1007.8
20260830172557 92 128 2.0 9.0 0.00 0.00 0.00 61 1007.7
20260830172057 91 94 2.0 8.0 0.00 0.00 0.00 66 1007.8
20260830171609 90 88 1.0 7.0 0.00 0.00 0.00 65 1008.0
20260830171059 90 76 1.0 7.0 0.00 0.00 0.00 67 1008.0
20260830170557 90 136 2.0 7.0 0.00 0.00 0.00 63 1008.0
20260830170103 90 107 1.0 7.0 0.00 0.00 0.00 65 1008.0
20260830165600 89 88 2.0 7.0 0.00 0.00 0.00 66 1008.1
20260830165057 89 55 2.0 5.0 0.00 0.00 0.00 67 1008.1
20260830164602 88 99 2.0 6.0 0.00 0.00 0.00 66 1008.1
20260830164057 88 111 1.0 6.0 0.00 0.00 0.00 69 1008.1
20260830163557 87 133 2.0 6.0 0.00 0.00 0.00 70 1008.0
20260830163109 86 74 2.0 6.0 0.00 0.00 0.00 73 1008.0
20260830162601 85 121 1.0 7.0 0.00 0.00 0.00 74 1008.1
20260830162057 84 96 2.0 7.0 0.00 0.00 0.00 73 1008.2
20260830161606 84 117 1.0 4.0 0.00 0.00 0.00 74 1008.2
20260830161059 84 0 0.0 4.0 0.00 0.00 0.00 74 1008.3
20260830160559 84 67 1.0 6.0 0.00 0.00 0.00 75 1008.2
20260830160115 83 125 1.0 8.0 0.00 0.00 0.00 76 1008.1
20260830155556 82 121 2.0 8.0 0.00 0.00 0.00 76 1008.1
20260830155056 82 120 2.0 8.0 0.00 0.00 0.00 78 1008.2
20260830154601 80 0 2.0 7.0 0.00 0.00 0.00 80 1008.2
20260830154100 79 112 2.0 7.0 0.00 0.00 0.00 86 1008.2
20260830153556 77 115 2.0 6.0 0.00 0.00 0.00 89 1008.3
20260830153102 77 93 2.0 6.0 0.00 0.00 0.00 90 1008.3
20260830152555 76 123 1.0 4.0 0.00 0.00 0.00 91 1008.3
20260830152057 76 86 1.0 7.0 0.00 0.00 0.00 91 1008.2
20260830151602 75 123 0.0 7.0 0.00 0.00 0.00 91 1008.2
20260830151057 75 96 2.0 7.0 0.00 0.00 0.00 91 1008.3
20260830150600 74 130 2.0 4.0 0.00 0.00 0.00 91 1008.3
20260830150126 74 109 1.0 3.0 0.00 0.00 0.00 92 1008.3
20260830145556 74 0 1.0 3.0 0.00 0.00 0.00 92 1008.2
20260830145056 73 102 1.0 3.0 0.00 0.00 0.00 92 1008.3
20260830144607 73 124 0.0 3.0 0.00 0.00 0.00 92 1008.4
20260830144057 72 84 0.0 3.0 0.00 0.00 0.00 92 1008.4
20260830143556 72 98 1.0 3.0 0.00 0.00 0.00 92 1008.3
20260830143105 72 0 0.0 2.0 0.00 0.00 0.00 92 1008.3
20260830142557 72 0 0.0 2.0 0.00 0.00 0.00 92 1008.2
20260830142058 71 0 0.0 1.0 0.00 0.00 0.00 92 1008.1
20260830141609 71 0 0.0 3.0 0.00 0.00 0.00 92 1008.2
20260830141101 71 0 0.0 3.0 0.00 0.00 0.00 92 1008.2
20260830140559 71 86 0.0 3.0 0.00 0.00 0.00 92 1008.3
20260830140106 70 0 0.0 3.0 0.00 0.00 0.00 92 1008.2
20260830135559 70 114 0.0 3.0 0.00 0.00 0.00 92 1008.2
20260830135104 70 80 0.0 2.0 0.00 0.00 0.00 92 1008.2
20260830134606 70 0 0.0 2.0 0.00 0.00 0.00 92 1008.2
20260830134059 69 0 0.0 4.0 0.00 0.00 0.00 92 1008.2
20260830133558 69 82 1.0 4.0 0.00 0.00 0.00 92 1008.2
20260830133104 69 0 0.0 3.0 0.00 0.00 0.00 92 1008.1
20260830132559 69 0 0.0 3.0 0.00 0.00 0.00 91 1008.2
20260830132059 68 69 1.0 7.0 0.00 0.00 0.00 91 1008.1
20260830131600 68 102 1.0 7.0 0.00 0.00 0.00 91 1008.2
20260830131059 68 0 0.0 5.0 0.00 0.00 0.00 91 1008.3
20260830130559 68 80 1.0 6.0 0.00 0.00 0.00 91 1008.5
20260830130108 68 92 2.0 6.0 0.00 0.00 0.00 91 1008.1
20260830125600 68 108 1.0 6.0 0.00 0.00 0.00 91 1007.8
20260830125058 68 69 1.0 6.0 0.00 0.00 0.00 90 1008.0
20260830124600 68 98 0.0 3.0 0.00 0.00 0.00 90 1008.2
20260830124056 68 88 1.0 3.0 0.00 0.00 0.00 90 1008.1
20260830123556 68 0 0.0 2.0 0.00 0.00 0.00 90 1008.2
20260830123104 68 107 0.0 3.0 0.00 0.00 0.00 90 1008.5
20260830122558 68 0 1.0 3.0 0.00 0.00 0.00 90 1008.3
20260830122058 68 96 0.0 4.0 0.00 0.00 0.00 90 1008.3
20260830121606 68 0 1.0 4.0 0.00 0.00 0.00 90 1008.2
20260830121058 68 0 0.0 3.0 0.00 0.00 0.00 90 1008.2
20260830120558 68 34 0.0 2.0 0.00 0.00 0.00 90 1008.2
20260830120106 68 0 0.0 2.0 0.00 0.00 0.00 90 1008.1
20260830115556 68 0 0.0 3.0 0.00 0.00 0.00 90 1008.1
20260830115057 68 127 0.0 3.0 0.00 0.00 0.00 90 1008.2
20260830114614 68 19 1.0 2.0 0.00 0.00 0.00 90 1008.1
20260830114058 69 38 1.0 2.0 0.00 0.00 0.00 90 1008.1
20260830113600 69 0 1.0 2.0 0.00 0.00 0.00 90 1008.1
20260830113107 69 24 1.0 3.0 0.00 0.00 0.00 90 1008.2
20260830112559 69 0 1.0 3.0 0.00 0.00 0.00 90 1008.3
20260830112101 69 29 0.0 3.0 0.00 0.00 0.00 90 1008.3
20260830111602 69 0 1.0 3.0 0.00 0.00 0.00 90 1008.2
20260830111059 69 28 1.0 3.0 0.00 0.00 0.00 90 1008.1
20260830110600 69 0 0.0 2.0 0.00 0.00 0.00 90 1008.1
20260830110104 69 0 0.0 2.0 0.00 0.00 0.00 90 1008.0
20260830105559 69 0 0.0 2.0 0.00 0.00 0.00 90 1008.0
20260830105059 69 0 0.0 2.0 0.00 0.00 0.00 90 1008.1
20260830104602 69 95 0.0 2.0 0.00 0.00 0.00 90 1008.3
20260830104059 69 0 0.0 3.0 0.00 0.00 0.00 90 1008.2
20260830103559 70 0 0.0 3.0 0.00 0.00 0.00 90 1008.1
20260830103103 70 0 0.0 3.0 0.00 0.00 0.00 90 1008.1
20260830102558 70 0 0.0 2.0 0.00 0.00 0.00 90 1008.1
20260830102058 70 0 0.0 2.0 0.00 0.00 0.00 90 1008.2
20260830101604 70 55 1.0 2.0 0.00 0.00 0.00 90 1008.3
20260830101058 69 71 0.0 1.0 0.00 0.00 0.00 90 1008.3
20260830100558 69 0 0.0 1.0 0.00 0.00 0.00 90 1008.3
20260830095600 70 0 0.0 1.0 0.00 0.00 0.00 90 1008.1
20260830095059 69 0 0.0 2.0 0.00 0.00 0.00 90 1008.2
20260830094605 69 0 0.0 2.0 0.00 0.00 0.00 90 1008.2
20260830094058 69 0 0.0 2.0 0.00 0.00 0.00 89 1008.2
20260830093558 69 0 0.0 2.0 0.00 0.00 0.00 89 1008.4
20260830093101 69 0 0.0 2.0 0.00 0.00 0.00 89 1008.6
20260830092558 69 82 0.0 2.0 0.00 0.00 0.00 89 1008.6
20260830092100 69 82 0.0 2.0 0.00 0.00 0.00 89 1008.5
20260830091600 70 90 0.0 1.0 0.00 0.00 0.00 89 1008.5
20260830091057 69 0 0.0 1.0 0.00 0.00 0.00 89 1008.5
20260830090559 69 90 0.0 1.0 0.00 0.00 0.00 89 1008.5
20260830090107 69 0 0.0 1.0 0.00 0.00 0.00 89 1008.5
20260830085558 69 0 0.0 1.0 0.00 2.08 0.00 89 1008.4
20260830085058 69 0 0.0 1.0 0.00 2.08 0.00 89 1008.4
20260830084601 69 0 0.0 1.0 0.00 2.08 0.00 88 1008.5
20260830084059 69 0 0.0 1.0 0.00 2.08 0.00 88 1008.6
20260830083559 69 0 0.0 2.0 0.00 2.08 0.00 87 1008.6
20260830083106 69 0 0.0 3.0 0.00 2.08 0.00 87 1008.4
20260830082600 69 92 0.0 3.0 0.00 2.08 0.00 87 1008.3
20260830082059 69 129 1.0 3.0 0.00 2.08 0.00 87 1008.3
20260830081605 69 103 0.0 3.0 0.00 2.08 0.00 87 1008.1
20260830081059 69 115 1.0 3.0 0.00 2.08 0.00 87 1008.1
20260830080557 69 0 0.0 4.0 0.00 2.08 0.00 87 1008.0
20260830080104 69 0 1.0 4.0 0.00 2.08 0.00 87 1007.9
20260830075559 69 0 0.0 4.0 0.00 2.87 0.00 87 1008.0
20260830075059 70 94 1.0 6.0 0.00 2.87 0.00 87 1008.0
20260830074605 70 80 1.0 6.0 0.00 2.87 0.00 87 1008.0
20260830074058 70 46 1.0 4.0 0.00 2.87 0.00 87 1008.0
20260830073558 70 97 0.0 4.0 0.00 2.87 0.00 87 1008.2
20260830073102 70 0 0.0 3.0 0.00 2.87 0.00 87 1008.2